Time,TemperatureF,DewpointF,PressureIn,WindDirection,WindDirectionDegrees,WindSpeedMPH,WindSpeedGustMPH,Humidity,HourlyPrecipIn,Conditions,Clouds,dailyrainin,SoftwareType,DateUTC
2013-06-11 00:08:00,67.8,62.5,29.87,South,172,0.0,4.0,83,0.00,CLR,,0.00,WeatherDisplay:10.37,2013-06-11 04:08:00,
2013-06-11 00:18:00,67.8,62.5,29.87,NNW,342,0.0,3.0,83,0.00,CLR,,0.00,WeatherDisplay:10.37,2013-06-11 04:18:00,
2013-06-11 00:28:00,67.8,62.8,29.87,SSE,166,0.0,5.0,84,0.00,CLR,,0.00,WeatherDisplay:10.37,2013-06-11 04:28:00,
2013-06-11 00:38:00,68.0,63.0,29.87,SSE,163,0.0,2.0,84,0.00,CLR,,0.00,WeatherDisplay:10.37,2013-06-11 04:38:00,
2013-06-11 00:48:00,68.0,63.0,29.87,NW,316,1.0,5.0,84,0.00,CLR,,0.00,WeatherDisplay:10.37,2013-06-11 04:48:00,
2013-06-11 00:58:00,68.0,63.0,29.87,West,270,0.0,5.0,84,0.00,CLR,,0.00,WeatherDisplay:10.37,2013-06-11 04:58:00,
2013-06-11 01:08:00,67.8,62.8,29.87,WNW,289,0.0,4.0,84,0.00,CLR,,0.00,WeatherDisplay:10.37,2013-06-11 05:08:00,
2013-06-11 01:18:00,67.8,62.8,29.87,WNW,301,0.0,0.0,84,0.00,CLR,,0.00,WeatherDisplay:10.37,2013-06-11 05:18:00,
2013-06-11 01:28:00,67.6,62.6,29.87,West,259,0.0,0.0,84,0.00,CLR,,0.00,WeatherDisplay:10.37,2013-06-11 05:28:00,
2013-06-11 01:38:00,67.5,62.5,29.87,WNW,289,0.0,3.0,84,0.00,CLR,,0.00,WeatherDisplay:10.37,2013-06-11 05:38:00,
2013-06-11 01:48:00,67.3,62.3,29.87,WNW,289,0.0,0.0,84,0.00,CLR,,0.00,WeatherDisplay:10.37,2013-06-11 05:48:00,
2013-06-11 01:58:00,66.9,61.9,29.87,WSW,244,0.0,4.0,84,0.00,CLR,,0.00,WeatherDisplay:10.37,2013-06-11 05:58:00,
2013-06-11 02:08:00,66.9,61.9,29.87,WSW,257,1.0,6.0,84,0.00,CLR,,0.00,WeatherDisplay:10.37,2013-06-11 06:08:00,
2013-06-11 02:18:00,66.6,61.6,29.87,SE,129,0.0,6.0,84,0.00,CLR,,0.00,WeatherDisplay:10.37,2013-06-11 06:18:00,
2013-06-11 02:28:00,66.4,61.4,29.84,SE,134,0.0,4.0,84,0.00,CLR,,0.00,WeatherDisplay:10.37,2013-06-11 06:28:00,
2013-06-11 02:38:00,66.2,61.2,29.84,SE,142,0.0,4.0,84,0.00,CLR,,0.00,WeatherDisplay:10.37,2013-06-11 06:38:00,
2013-06-11 02:48:00,66.0,61.0,29.84,SE,134,0.0,0.0,84,0.00,CLR,,0.00,WeatherDisplay:10.37,2013-06-11 06:48:00,
2013-06-11 02:58:00,65.8,60.9,29.84,SSE,159,0.0,0.0,84,0.00,CLR,,0.00,WeatherDisplay:10.37,2013-06-11 06:58:00,
2013-06-11 03:08:00,65.8,60.9,29.84,SW,225,0.0,0.0,84,0.00,CLR,,0.00,WeatherDisplay:10.37,2013-06-11 07:08:00,
2013-06-11 03:18:00,65.7,60.7,29.84,NE,40,3.0,4.0,84,0.00,CLR,,0.00,WeatherDisplay:10.37,2013-06-11 07:18:00,
2013-06-11 03:28:00,66.0,61.4,29.84,North,352,0.0,4.0,85,0.00,CLR,,0.00,WeatherDisplay:10.37,2013-06-11 07:28:00,
2013-06-11 03:38:00,65.8,61.2,29.84,West,268,0.0,4.0,85,0.00,CLR,,0.00,WeatherDisplay:10.37,2013-06-11 07:38:00,
2013-06-11 03:48:00,65.5,60.5,29.84,West,276,0.0,0.0,84,0.00,CLR,,0.00,WeatherDisplay:10.37,2013-06-11 07:48:00,
2013-06-11 03:58:00,65.3,60.7,29.84,NNE,20,0.0,4.0,85,0.00,CLR,,0.00,WeatherDisplay:10.37,2013-06-11 07:58:00,
2013-06-11 04:08:00,64.9,60.3,29.84,NE,38,0.0,0.0,85,0.00,CLR,,0.00,WeatherDisplay:10.37,2013-06-11 08:08:00,
2013-06-11 04:18:00,64.8,60.1,29.84,NE,45,0.0,0.0,85,0.00,CLR,,0.00,WeatherDisplay:10.37,2013-06-11 08:18:00,
2013-06-11 04:28:00,64.6,60.0,29.84,NNE,14,0.0,0.0,85,0.00,CLR,,0.00,WeatherDisplay:10.37,2013-06-11 08:28:00,
2013-06-11 04:38:00,64.6,60.0,29.87,WNW,295,0.0,3.0,85,0.00,CLR,,0.00,WeatherDisplay:10.37,2013-06-11 08:38:00,
2013-06-11 04:48:00,64.4,59.8,29.87,NW,314,0.0,0.0,85,0.00,CLR,,0.00,WeatherDisplay:10.37,2013-06-11 08:48:00,
2013-06-11 04:58:00,64.0,59.4,29.87,NNE,18,0.0,0.0,85,0.00,CLR,,0.00,WeatherDisplay:10.37,2013-06-11 08:58:00,
2013-06-11 05:08:00,64.2,59.9,29.87,ENE,57,0.0,3.0,86,0.00,CLR,,0.00,WeatherDisplay:10.37,2013-06-11 09:08:00,
2013-06-11 05:18:00,64.0,59.8,29.87,ESE,107,0.0,4.0,86,0.00,CLR,,0.00,WeatherDisplay:10.37,2013-06-11 09:18:00,
2013-06-11 05:28:00,64.2,59.9,29.87,SW,235,0.0,0.0,86,0.00,CLR,,0.00,WeatherDisplay:10.37,2013-06-11 09:28:00,
2013-06-11 05:38:00,64.3,60.0,29.87,SW,235,0.0,0.0,86,0.00,CLR,,0.00,WeatherDisplay:10.37,2013-06-11 09:38:00,
2013-06-11 05:48:00,64.6,60.3,29.87,SW,235,0.0,0.0,86,0.00,CLR,,0.00,WeatherDisplay:10.37,2013-06-11 09:48:00,
2013-06-11 05:58:00,64.6,60.3,29.87,SW,235,0.0,0.0,86,0.00,CLR,,0.00,WeatherDisplay:10.37,2013-06-11 09:58:00,
2013-06-11 06:08:00,64.9,60.6,29.87,West,272,0.0,4.0,86,0.00,CLR,,0.00,WeatherDisplay:10.37,2013-06-11 10:08:00,
2013-06-11 06:18:00,65.3,61.0,29.87,WNW,287,3.0,6.0,86,0.00,CLR,,0.00,WeatherDisplay:10.37,2013-06-11 10:18:00,
2013-06-11 06:28:00,65.5,61.2,29.87,NW,322,0.0,6.0,86,0.00,CLR,,0.00,WeatherDisplay:10.37,2013-06-11 10:28:00,
2013-06-11 06:38:00,65.7,61.7,29.87,NW,316,0.0,6.0,87,0.00,CLR,,0.00,WeatherDisplay:10.37,2013-06-11 10:38:00,
2013-06-11 06:48:00,66.0,62.0,29.87,NW,307,0.0,4.0,87,0.00,CLR,,0.00,WeatherDisplay:10.37,2013-06-11 10:48:00,
2013-06-11 06:58:00,66.0,62.0,29.87,NNW,328,0.0,0.0,87,0.00,CLR,,0.00,WeatherDisplay:10.37,2013-06-11 10:58:00,
2013-06-11 07:08:00,66.2,62.2,29.87,NW,324,0.0,0.0,87,0.00,CLR,,0.00,WeatherDisplay:10.37,2013-06-11 11:08:00,
2013-06-11 07:18:00,66.2,62.2,29.87,NW,320,0.0,0.0,87,0.00,CLR,,0.00,WeatherDisplay:10.37,2013-06-11 11:18:00,
2013-06-11 07:28:00,66.4,62.1,29.87,SSE,168,0.0,0.0,86,0.00,CLR,,0.00,WeatherDisplay:10.37,2013-06-11 11:28:00,
2013-06-11 07:38:00,66.6,62.2,29.90,SSE,166,0.0,0.0,86,0.00,CLR,,0.00,WeatherDisplay:10.37,2013-06-11 11:38:00,
2013-06-11 07:48:00,66.6,62.6,29.90,SSE,166,0.0,0.0,87,0.00,CLR,,0.00,WeatherDisplay:10.37,2013-06-11 11:48:00,
2013-06-11 07:58:00,67.1,63.1,29.87,SSE,168,0.0,0.0,87,0.00,CLR,,0.00,WeatherDisplay:10.37,2013-06-11 11:58:00,
2013-06-11 08:08:00,67.5,63.5,29.90,West,274,2.0,4.0,87,0.00,CLR,,0.00,WeatherDisplay:10.37,2013-06-11 12:08:00,
2013-06-11 08:18:00,67.6,63.6,29.90,SW,217,0.0,4.0,87,0.00,CLR,,0.00,WeatherDisplay:10.37,2013-06-11 12:18:00,
2013-06-11 08:28:00,68.2,64.2,29.87,West,260,0.0,6.0,87,0.00,CLR,,0.00,WeatherDisplay:10.37,2013-06-11 12:28:00,
2013-06-11 08:38:00,68.2,63.8,29.90,WSW,256,0.0,6.0,86,0.00,CLR,,0.00,WeatherDisplay:10.37,2013-06-11 12:38:00,
2013-06-11 08:48:00,68.8,64.4,29.90,SW,226,1.0,4.0,86,0.00,CLR,,0.00,WeatherDisplay:10.37,2013-06-11 12:48:00,
2013-06-11 08:58:00,69.7,65.3,29.87,WSW,239,1.0,6.0,86,0.00,CLR,,0.00,WeatherDisplay:10.37,2013-06-11 12:58:00,
2013-06-11 09:08:00,69.8,62.6,29.87,West,262,3.0,10.0,78,0.00,CLR,,0.00,WeatherDisplay:10.37,2013-06-11 13:08:00,
2013-06-11 09:18:00,70.5,60.2,29.87,WNW,299,2.0,6.0,70,0.00,CLR,,0.00,WeatherDisplay:10.37,2013-06-11 13:18:00,
2013-06-11 09:28:00,71.6,57.9,29.87,West,272,7.0,11.0,62,0.00,CLR,,0.00,WeatherDisplay:10.37,2013-06-11 13:28:00,
2013-06-11 09:38:00,72.4,55.4,29.87,West,277,6.0,12.0,55,0.00,CLR,,0.00,WeatherDisplay:10.37,2013-06-11 13:38:00,
2013-06-11 09:48:00,73.0,51.6,29.87,West,279,8.0,12.0,47,0.00,CLR,,0.00,WeatherDisplay:10.37,2013-06-11 13:48:00,
2013-06-11 09:58:00,73.6,52.1,29.87,West,269,9.0,15.0,47,0.00,CLR,,0.00,WeatherDisplay:10.37,2013-06-11 13:58:00,
2013-06-11 10:08:00,74.1,50.8,29.87,WNW,284,6.0,13.0,44,0.00,CLR,,0.00,WeatherDisplay:10.37,2013-06-11 14:08:00,
2013-06-11 10:18:00,74.5,51.7,29.87,West,275,8.0,14.0,45,0.00,CLR,,0.00,WeatherDisplay:10.37,2013-06-11 14:18:00,
2013-06-11 10:28:00,74.0,50.0,29.87,WNW,284,7.0,15.0,43,0.00,CLR,,0.00,WeatherDisplay:10.37,2013-06-11 14:28:00,
2013-06-11 10:38:00,73.5,51.4,29.87,West,281,9.0,15.0,46,0.00,CLR,,0.00,WeatherDisplay:10.37,2013-06-11 14:38:00,
2013-06-11 10:48:00,72.9,51.4,29.87,WNW,284,5.0,12.0,47,0.00,CLR,,0.00,WeatherDisplay:10.37,2013-06-11 14:48:00,
2013-06-11 10:58:00,73.0,52.1,29.87,WNW,289,6.0,9.0,48,0.00,CLR,,0.00,WeatherDisplay:10.37,2013-06-11 14:58:00,
2013-06-11 11:08:00,73.0,51.6,29.87,WNW,287,7.0,12.0,47,0.00,CLR,,0.00,WeatherDisplay:10.37,2013-06-11 15:08:00,
2013-06-11 11:18:00,72.8,51.4,29.87,WNW,286,8.0,13.0,47,0.00,CLR,,0.00,WeatherDisplay:10.37,2013-06-11 15:18:00,
2013-06-11 11:28:00,73.2,53.5,29.87,WNW,289,7.0,9.0,50,0.00,CLR,,0.00,WeatherDisplay:10.37,2013-06-11 15:28:00,
2013-06-11 11:38:00,72.7,53.0,29.87,WNW,296,5.0,9.0,50,0.00,CLR,,0.00,WeatherDisplay:10.37,2013-06-11 15:38:00,
2013-06-11 11:48:00,72.5,52.8,29.87,WNW,295,3.0,9.0,50,0.00,CLR,,0.00,WeatherDisplay:10.37,2013-06-11 15:48:00,
2013-06-11 11:58:00,74.3,56.5,29.87,WNW,285,8.0,11.0,54,0.00,CLR,,0.00,WeatherDisplay:10.37,2013-06-11 15:58:00,
2013-06-11 12:08:00,75.6,53.3,29.87,WNW,287,7.0,10.0,46,0.00,CLR,,0.00,WeatherDisplay:10.37,2013-06-11 16:08:00,
2013-06-11 12:18:00,76.5,51.7,29.87,West,280,8.0,13.0,42,0.00,CLR,,0.00,WeatherDisplay:10.37,2013-06-11 16:18:00,
2013-06-11 12:28:00,75.6,50.2,29.87,West,272,9.0,13.0,41,0.00,CLR,,0.00,WeatherDisplay:10.37,2013-06-11 16:28:00,
2013-06-11 12:38:00,74.7,49.4,29.87,WNW,295,6.0,15.0,41,0.00,CLR,,0.00,WeatherDisplay:10.37,2013-06-11 16:38:00,
2013-06-11 12:48:00,74.3,49.7,29.87,WNW,291,6.0,9.0,42,0.00,CLR,,0.00,WeatherDisplay:10.37,2013-06-11 16:48:00,
2013-06-11 12:58:00,74.2,49.6,29.87,WNW,303,5.0,8.0,42,0.00,CLR,,0.00,WeatherDisplay:10.37,2013-06-11 16:58:00,
2013-06-11 13:08:00,73.9,50.6,29.87,WNW,295,5.0,8.0,44,0.00,CLR,,0.00,WeatherDisplay:10.37,2013-06-11 17:08:00,
2013-06-11 13:18:00,74.5,52.4,29.87,WNW,282,6.0,8.0,46,0.00,CLR,,0.00,WeatherDisplay:10.37,2013-06-11 17:18:00,
2013-06-11 13:28:00,75.6,50.9,29.87,West,277,7.0,11.0,42,0.00,CLR,,0.00,WeatherDisplay:10.37,2013-06-11 17:28:00,
2013-06-11 13:38:00,76.2,48.0,29.87,WNW,293,7.0,17.0,37,0.00,CLR,,0.00,WeatherDisplay:10.37,2013-06-11 17:38:00,
2013-06-11 13:48:00,75.7,49.7,29.87,WNW,282,10.0,16.0,40,0.00,CLR,,0.00,WeatherDisplay:10.37,2013-06-11 17:48:00,
2013-06-11 13:58:00,77.2,48.9,29.87,WNW,291,8.0,17.0,37,0.00,CLR,,0.00,WeatherDisplay:10.37,2013-06-11 17:58:00,
2013-06-11 14:08:00,77.0,46.5,29.87,WNW,284,10.0,20.0,34,0.00,CLR,,0.00,WeatherDisplay:10.37,2013-06-11 18:08:00,
2013-06-11 14:18:00,78.1,49.0,29.87,WNW,285,10.0,15.0,36,0.00,CLR,,0.00,WeatherDisplay:10.37,2013-06-11 18:18:00,
2013-06-11 14:28:00,77.5,46.9,29.87,WNW,287,10.0,13.0,34,0.00,CLR,,0.00,WeatherDisplay:10.37,2013-06-11 18:28:00,
2013-06-11 14:38:00,76.1,47.2,29.87,WNW,293,8.0,21.0,36,0.00,CLR,,0.00,WeatherDisplay:10.37,2013-06-11 18:38:00,
2013-06-11 14:48:00,75.4,48.7,29.87,WNW,283,7.0,15.0,39,0.00,CLR,,0.00,WeatherDisplay:10.37,2013-06-11 18:48:00,
2013-06-11 14:58:00,75.7,47.6,29.87,West,279,10.0,17.0,37,0.00,CLR,,0.00,WeatherDisplay:10.37,2013-06-11 18:58:00,
2013-06-11 15:08:00,76.1,47.9,29.87,WNW,291,8.0,15.0,37,0.00,CLR,,0.00,WeatherDisplay:10.37,2013-06-11 19:08:00,
2013-06-11 15:18:00,75.9,49.9,29.87,WNW,291,5.0,13.0,40,0.00,CLR,,0.00,WeatherDisplay:10.37,2013-06-11 19:18:00,
2013-06-11 15:28:00,75.9,48.5,29.87,WNW,285,5.0,13.0,38,0.00,CLR,,0.00,WeatherDisplay:10.37,2013-06-11 19:28:00,
2013-06-11 15:38:00,75.6,48.9,29.87,WNW,283,6.0,13.0,39,0.00,CLR,,0.00,WeatherDisplay:10.37,2013-06-11 19:38:00,
2013-06-11 15:48:00,75.6,48.2,29.87,NW,308,6.0,13.0,38,0.00,CLR,,0.00,WeatherDisplay:10.37,2013-06-11 19:48:00,
2013-06-11 15:58:00,75.9,48.5,29.87,WNW,299,7.0,13.0,38,0.00,CLR,,0.00,WeatherDisplay:10.37,2013-06-11 19:58:00,
2013-06-11 16:08:00,76.0,49.2,29.87,WNW,300,7.0,12.0,39,0.00,CLR,,0.00,WeatherDisplay:10.37,2013-06-11 20:08:00,
2013-06-11 16:18:00,76.3,50.8,29.87,WNW,286,10.0,13.0,41,0.00,CLR,,0.00,WeatherDisplay:10.37,2013-06-11 20:18:00,
2013-06-11 16:28:00,76.1,47.2,29.87,West,280,10.0,15.0,36,0.00,CLR,,0.00,WeatherDisplay:10.37,2013-06-11 20:28:00,
2013-06-11 16:38:00,75.2,48.5,29.87,WNW,284,9.0,15.0,39,0.00,CLR,,0.00,WeatherDisplay:10.37,2013-06-11 20:38:00,
2013-06-11 16:48:00,74.8,49.6,29.87,West,278,7.0,13.0,41,0.00,CLR,,0.00,WeatherDisplay:10.37,2013-06-11 20:48:00,
2013-06-11 16:58:00,74.8,48.2,29.87,West,278,10.0,20.0,39,0.00,CLR,,0.00,WeatherDisplay:10.37,2013-06-11 20:58:00,
2013-06-11 17:08:00,75.7,50.4,29.87,WNW,282,8.0,16.0,41,0.00,CLR,,0.00,WeatherDisplay:10.37,2013-06-11 21:08:00,
2013-06-11 17:18:00,75.7,48.3,29.87,West,279,13.0,15.0,38,0.00,CLR,,0.00,WeatherDisplay:10.37,2013-06-11 21:18:00,
2013-06-11 17:28:00,75.4,48.0,29.87,West,280,8.0,17.0,38,0.00,CLR,,0.00,WeatherDisplay:10.37,2013-06-11 21:28:00,
2013-06-11 17:38:00,75.0,49.1,29.87,WNW,284,7.0,16.0,40,0.00,CLR,,0.00,WeatherDisplay:10.37,2013-06-11 21:38:00,
2013-06-11 17:48:00,76.0,51.3,29.87,WNW,284,6.0,11.0,42,0.00,CLR,,0.00,WeatherDisplay:10.37,2013-06-11 21:48:00,
2013-06-11 17:58:00,76.7,47.0,29.87,West,279,10.0,13.0,35,0.00,CLR,,0.00,WeatherDisplay:10.37,2013-06-11 21:58:00,
2013-06-11 18:08:00,77.0,48.7,29.87,WNW,289,8.0,12.0,37,0.00,CLR,,0.00,WeatherDisplay:10.37,2013-06-11 22:08:00,
2013-06-11 18:18:00,77.1,46.6,29.87,WNW,295,7.0,13.0,34,0.00,CLR,,0.00,WeatherDisplay:10.37,2013-06-11 22:18:00,
2013-06-11 18:28:00,76.5,47.5,29.87,WNW,291,9.0,16.0,36,0.00,CLR,,0.00,WeatherDisplay:10.37,2013-06-11 22:28:00,
2013-06-11 18:38:00,76.8,47.1,29.87,WNW,287,12.0,17.0,35,0.00,CLR,,0.00,WeatherDisplay:10.37,2013-06-11 22:38:00,
2013-06-11 18:48:00,76.6,47.7,29.87,WNW,284,10.0,17.0,36,0.00,CLR,,0.00,WeatherDisplay:10.37,2013-06-11 22:48:00,
2013-06-11 18:58:00,76.6,48.4,29.87,WNW,284,7.0,13.0,37,0.00,CLR,,0.00,WeatherDisplay:10.37,2013-06-11 22:58:00,
2013-06-11 19:08:00,76.3,48.1,29.87,WNW,283,6.0,10.0,37,0.00,CLR,,0.00,WeatherDisplay:10.37,2013-06-11 23:08:00,
2013-06-11 19:18:00,75.5,48.8,29.87,West,280,5.0,9.0,39,0.00,CLR,,0.00,WeatherDisplay:10.37,2013-06-11 23:18:00,
2013-06-11 19:28:00,75.6,49.5,29.87,WNW,294,6.0,8.0,40,0.00,CLR,,0.00,WeatherDisplay:10.37,2013-06-11 23:28:00,
2013-06-11 19:38:00,75.6,48.9,29.87,NW,308,7.0,8.0,39,0.00,CLR,,0.00,WeatherDisplay:10.37,2013-06-11 23:38:00,
2013-06-11 19:48:00,75.0,49.7,29.87,WNW,282,6.0,8.0,41,0.00,CLR,,0.00,WeatherDisplay:10.37,2013-06-11 23:48:00,
2013-06-11 19:58:00,74.2,49.6,29.87,West,276,3.0,8.0,42,0.00,CLR,,0.00,WeatherDisplay:10.37,2013-06-11 23:58:00,
2013-06-11 20:08:00,73.4,50.2,29.87,West,279,3.0,8.0,44,0.00,CLR,,0.00,WeatherDisplay:10.37,2013-06-12 00:08:00,
2013-06-11 20:18:00,73.0,50.4,29.87,WNW,282,2.0,4.0,45,0.00,CLR,,0.00,WeatherDisplay:10.37,2013-06-12 00:18:00,
2013-06-11 20:28:00,72.3,49.8,29.87,West,281,0.0,5.0,45,0.00,CLR,,0.00,WeatherDisplay:10.37,2013-06-12 00:28:00,
2013-06-11 20:38:00,71.6,49.7,29.87,West,260,0.0,0.0,46,0.00,CLR,,0.00,WeatherDisplay:10.37,2013-06-12 00:38:00,
2013-06-11 20:48:00,70.9,49.6,29.87,West,260,0.0,0.0,47,0.00,CLR,,0.00,WeatherDisplay:10.37,2013-06-12 00:48:00,
2013-06-11 20:58:00,70.3,49.7,29.87,NW,305,0.0,3.0,48,0.00,CLR,,0.00,WeatherDisplay:10.37,2013-06-12 00:58:00,
2013-06-11 21:08:00,70.0,49.9,29.87,NW,308,0.0,4.0,49,0.00,CLR,,0.00,WeatherDisplay:10.37,2013-06-12 01:08:00,
2013-06-11 21:18:00,69.3,50.4,29.87,NW,319,0.0,0.0,51,0.00,CLR,,0.00,WeatherDisplay:10.37,2013-06-12 01:18:00,
2013-06-11 21:28:00,68.8,51.0,29.87,WSW,240,0.0,3.0,53,0.00,CLR,,0.00,WeatherDisplay:10.37,2013-06-12 01:28:00,
2013-06-11 21:38:00,68.7,51.9,29.90,WSW,238,0.0,0.0,55,0.00,CLR,,0.00,WeatherDisplay:10.37,2013-06-12 01:38:00,
2013-06-11 21:48:00,68.7,52.4,29.90,WSW,238,0.0,0.0,56,0.00,CLR,,0.00,WeatherDisplay:10.37,2013-06-12 01:48:00,
2013-06-11 21:58:00,68.2,52.4,29.90,WSW,238,0.0,0.0,57,0.00,CLR,,0.00,WeatherDisplay:10.37,2013-06-12 01:58:00,
2013-06-11 22:08:00,67.5,52.6,29.90,WSW,251,0.0,0.0,59,0.00,CLR,,0.00,WeatherDisplay:10.37,2013-06-12 02:08:00,
2013-06-11 22:18:00,66.9,52.6,29.90,West,271,0.0,2.0,60,0.00,CLR,,0.00,WeatherDisplay:10.37,2013-06-12 02:18:00,
2013-06-11 22:28:00,67.3,53.8,29.90,NNW,340,2.0,4.0,62,0.00,CLR,,0.00,WeatherDisplay:10.37,2013-06-12 02:28:00,
2013-06-11 22:38:00,68.5,55.8,29.90,North,354,2.0,4.0,64,0.00,CLR,,0.00,WeatherDisplay:10.37,2013-06-12 02:38:00,
2013-06-11 22:49:00,68.5,55.4,29.90,North,357,0.0,3.0,63,0.00,CLR,,0.00,WeatherDisplay:10.37,2013-06-12 02:49:00,
2013-06-11 22:58:00,67.7,54.6,29.90,North,357,0.0,0.0,63,0.00,CLR,,0.00,WeatherDisplay:10.37,2013-06-12 02:58:00,
2013-06-11 23:08:00,66.9,53.9,29.93,North,357,0.0,0.0,63,0.00,CLR,,0.00,WeatherDisplay:10.37,2013-06-12 03:08:00,
2013-06-11 23:18:00,66.5,53.5,29.93,North,10,2.0,3.0,63,0.00,CLR,,0.00,WeatherDisplay:10.37,2013-06-12 03:18:00,
2013-06-11 23:28:00,66.2,53.7,29.90,NNE,17,0.0,3.0,64,0.00,CLR,,0.00,WeatherDisplay:10.37,2013-06-12 03:28:00,
2013-06-11 23:38:00,65.8,53.7,29.90,NNE,17,0.0,0.0,65,0.00,CLR,,0.00,WeatherDisplay:10.37,2013-06-12 03:38:00,
2013-06-11 23:48:00,65.8,54.2,29.90,NNE,17,0.0,0.0,66,0.00,CLR,,0.00,WeatherDisplay:10.37,2013-06-12 03:48:00,
2013-06-11 23:58:00,65.8,54.6,29.90,NNE,17,0.0,0.0,67,0.00,CLR,,0.00,WeatherDisplay:10.37,2013-06-12 03:58:00,